DW3800 Weather Reports


Display with metric or nautical units.
time (UTC)temp
F
wind
direction
speed
MPH
gust
MPH
rain 1hr
in
rain 24hr
in
rain mn
in
humidity
%
barometer
mb
20201201172919 29 135 0.0 5.0 0.00 0.00 0.00 68 1018.6
20201201171917 29 135 0.0 0.0 0.00 0.00 0.00 70 1018.6
20201201171418 29 135 0.0 0.0 0.00 0.00 0.00 70 1019.0
20201201170419 29 113 0.0 0.0 0.00 0.00 0.00 71 1018.6
20201201164916 28 135 0.0 2.0 0.00 0.00 0.00 73 1018.6
20201201163412 27 135 0.0 0.0 0.00 0.00 0.00 73 1018.6
20201201162412 27 158 0.0 0.0 0.00 0.00 0.00 74 1018.6
20201201160909 26 158 0.0 0.0 0.00 0.00 0.00 76 1018.6
20201201155407 24 158 0.0 0.0 0.00 0.00 0.00 77 1018.3
20201201154906 24 135 0.0 0.0 0.00 0.00 0.00 78 1018.3
20201201154406 24 135 0.0 0.0 0.00 0.00 0.00 78 1018.3
20201201153404 23 113 0.0 1.0 0.00 0.00 0.00 79 1018.3
20201201152904 23 113 1.0 1.0 0.00 0.00 0.00 79 1017.9
20201201151902 22 113 0.0 0.0 0.00 0.00 0.00 80 1018.3
20201201151401 22 113 0.0 0.0 0.00 0.00 0.00 81 1017.9
20201201150901 21 135 0.0 0.0 0.00 0.00 0.00 80 1017.9
20201201144901 20 135 0.0 0.0 0.00 0.00 0.00 81 1017.6
20201201144359 20 135 0.0 0.0 0.00 0.00 0.00 82 1017.6
20201201143857 19 135 0.0 0.0 0.00 0.00 0.00 82 1017.6
20201201143400 19 135 0.0 0.0 0.00 0.00 0.00 82 1017.6
20201201142855 18 135 0.0 0.0 0.00 0.00 0.00 83 1017.3
20201201141854 18 158 0.0 0.0 0.00 0.00 0.00 82 1017.3
20201201141353 17 158 0.0 0.0 0.00 0.00 0.00 82 1017.3
20201201140852 17 158 0.0 0.0 0.00 0.00 0.00 82 1017.3
20201201134511 16 338 0.0 0.0 0.00 0.00 0.00 82 1016.9
20201201133849 16 338 0.0 0.0 0.00 0.00 0.00 82 1017.3
20201201133348 16 338 0.0 0.0 0.00 0.00 0.00 82 1016.9
20201201132847 16 338 0.0 0.0 0.00 0.00 0.00 82 1016.9
20201201131348 16 338 0.0 0.0 0.00 0.00 0.00 81 1016.9
20201201130851 16 338 0.0 0.0 0.00 0.00 0.00 81 1016.9
20201201130344 16 338 0.0 0.0 0.00 0.00 0.00 82 1016.9
20201201125844 16 338 0.0 0.0 0.00 0.00 0.00 82 1016.9
20201201125343 16 338 0.0 0.0 0.00 0.00 0.00 82 1016.6
20201201124842 16 338 0.0 0.0 0.00 0.00 0.00 82 1016.6
20201201123341 16 338 0.0 0.0 0.00 0.00 0.00 82 1016.6
20201201122842 16 338 0.0 0.0 0.00 0.00 0.00 82 1016.6
20201201122339 16 338 0.0 0.0 0.00 0.00 0.00 82 1016.9
20201201121838 16 338 0.0 0.0 0.00 0.00 0.00 82 1016.9
20201201115836 17 338 0.0 0.0 0.00 0.00 0.00 82 1016.6
20201201115337 17 338 0.0 0.0 0.00 0.00 0.00 82 1016.6
20201201114834 17 338 0.0 0.0 0.00 0.00 0.00 82 1016.6
20201201114341 17 338 0.0 0.0 0.00 0.00 0.00 82 1016.6
20201201112832 17 338 0.0 0.0 0.00 0.00 0.00 82 1016.3
20201201112333 17 338 0.0 0.0 0.00 0.00 0.00 82 1016.3
20201201111831 16 338 0.0 0.0 0.00 0.00 0.00 82 1016.3
20201201111330 16 338 0.0 0.0 0.00 0.00 0.00 82 1016.3
20201201110831 16 338 0.0 0.0 0.00 0.00 0.00 82 1016.3
20201201105332 16 338 0.0 0.0 0.00 0.00 0.00 81 1016.3
20201201104827 16 338 0.0 0.0 0.00 0.00 0.00 81 1016.3
20201201104326 16 338 0.0 0.0 0.00 0.00 0.00 81 1016.3
20201201103829 16 338 0.0 0.0 0.00 0.00 0.00 81 1016.3
20201201103326 16 338 0.0 0.0 0.00 0.00 0.00 81 1016.3
20201201101323 17 338 0.0 0.0 0.00 0.00 0.00 81 1016.6
20201201095558 17 338 0.0 0.0 0.00 0.00 0.00 81 1016.6
20201201095056 17 338 0.0 0.0 0.00 0.00 0.00 81 1016.9
20201201094556 17 338 0.0 0.0 0.00 0.00 0.00 81 1016.6
20201201094055 17 338 0.0 0.0 0.00 0.00 0.00 81 1016.6
20201201085026 17 338 0.0 0.0 0.00 0.00 0.00 80 1016.6
20201201084536 17 338 0.0 0.0 0.00 0.00 0.00 80 1016.9
20201201084025 17 338 0.0 0.0 0.00 0.00 0.00 80 1016.9
20201201082035 16 338 0.0 0.0 0.00 0.00 0.00 79 1016.9
20201201081523 16 338 0.0 0.0 0.00 0.00 0.00 79 1016.9
20201201081021 16 338 0.0 0.0 0.00 0.00 0.00 79 1016.6
20201201080027 17 338 0.0 0.0 0.00 0.00 0.00 79 1016.6
20201201075528 17 338 0.0 0.0 0.00 0.00 0.00 79 1016.6
20201201075025 17 338 0.0 0.0 0.00 0.00 0.00 79 1016.9
20201201074525 17 338 0.0 0.0 0.00 0.00 0.00 79 1016.9
20201201072522 17 338 0.0 0.0 0.00 0.00 0.00 78 1017.3
20201201072023 17 338 0.0 0.0 0.00 0.00 0.00 78 1017.3
20201201071527 17 338 0.0 0.0 0.00 0.00 0.00 78 1016.9
20201201070048 18 338 0.0 0.0 0.00 0.00 0.00 78 1016.9
20201201065526 18 338 0.0 0.0 0.00 0.00 0.00 78 1016.9
20201201065027 18 338 0.0 0.0 0.00 0.00 0.00 78 1017.3
20201201063527 18 338 0.0 0.0 0.00 0.00 0.00 78 1016.9
20201201063026 18 338 0.0 0.0 0.00 0.00 0.00 78 1016.9
20201201062527 18 338 0.0 0.0 0.00 0.00 0.00 78 1016.9
20201201062026 18 338 0.0 0.0 0.00 0.00 0.00 78 1016.6
20201201061524 18 338 0.0 0.0 0.00 0.00 0.00 78 1016.9
20201201060228 18 338 0.0 0.0 0.00 0.00 0.00 78 1016.9
20201201055733 18 338 0.0 0.0 0.00 0.00 0.00 78 1016.9
20201201054730 18 338 0.0 0.0 0.00 0.00 0.00 78 1017.3
20201201054225 18 338 0.0 0.0 0.00 0.00 0.00 77 1017.3
20201201053725 18 338 0.0 0.0 0.00 0.00 0.00 77 1017.3
20201201053229 18 338 0.0 0.0 0.00 0.00 0.00 77 1017.3
20201201052724 18 338 0.0 0.0 0.00 0.00 0.00 77 1017.3
20201201052223 18 338 0.0 0.0 0.00 0.00 0.00 77 1017.3
20201201050720 18 338 0.0 0.0 0.00 0.00 0.00 77 1017.3
20201201050220 18 338 0.0 0.0 0.00 0.00 0.00 76 1017.3
20201201045721 18 338 0.0 0.0 0.00 0.00 0.00 76 1017.3
20201201045219 19 338 0.0 0.0 0.00 0.00 0.00 77 1017.3
20201201044718 19 338 0.0 0.0 0.00 0.00 0.00 77 1016.9
20201201043216 19 338 0.0 0.0 0.00 0.00 0.00 76 1017.3
20201201042717 19 338 0.0 0.0 0.00 0.00 0.00 76 1017.3
20201201042215 19 338 0.0 0.0 0.00 0.00 0.00 76 1017.3
20201201041714 19 338 0.0 0.0 0.00 0.00 0.00 76 1017.3
20201201035211 19 338 0.0 0.0 0.00 0.00 0.00 75 1017.6
20201201034713 19 338 0.0 0.0 0.00 0.00 0.00 75 1017.6
20201201034211 19 338 0.0 0.0 0.00 0.00 0.00 75 1017.6
20201201031206 19 338 0.0 0.0 0.00 0.00 0.00 75 1017.9
20201201030705 19 338 0.0 0.0 0.00 0.00 0.00 75 1017.9
20201201025209 19 338 0.0 0.0 0.00 0.00 0.00 74 1017.9
20201201024201 19 338 0.0 0.0 0.00 0.00 0.00 74 1018.3
20201201023700 19 338 0.0 0.0 0.00 0.00 0.00 74 1018.3
20201201023200 19 338 0.0 0.0 0.00 0.00 0.00 74 1018.3
20201201022700 20 338 0.0 0.0 0.00 0.00 0.00 74 1018.3
20201201021701 20 338 0.0 0.0 0.00 0.00 0.00 73 1017.9
20201201020202 20 338 0.0 0.0 0.00 0.00 0.00 73 1017.9
20201201015655 20 338 0.0 0.0 0.00 0.00 0.00 73 1018.3
20201201014153 20 338 0.0 0.0 0.00 0.00 0.00 73 1017.9
20201201012654 20 338 0.0 0.0 0.00 0.00 0.00 73 1017.9
20201201012150 20 338 0.0 0.0 0.00 0.00 0.00 73 1018.3
20201201010147 21 338 0.0 0.0 0.00 0.00 0.00 71 1018.3
20201201005147 21 338 0.0 0.0 0.00 0.00 0.00 71 1018.3
20201201004646 21 338 0.0 0.0 0.00 0.00 0.00 71 1018.3
20201201002142 22 338 0.0 0.0 0.00 0.00 0.00 69 1018.3
20201201001643 22 338 0.0 0.0 0.00 0.00 0.00 69 1018.3
20201201000200 22 338 0.0 0.0 0.00 0.00 0.00 68 1018.3
20201130234638 23 338 0.0 0.0 0.00 0.00 0.00 67 1018.3
20201130234139 23 338 0.0 0.0 0.00 0.00 0.00 67 1018.3
20201130232635 24 338 0.0 0.0 0.00 0.00 0.00 65 1018.6
20201130231137 25 338 0.0 0.0 0.00 0.00 0.00 63 1018.6
20201130230635 25 338 0.0 0.0 0.00 0.00 0.00 63 1018.6
20201130225131 26 338 0.0 0.0 0.00 0.00 0.00 62 1018.6
20201130223628 26 338 0.0 0.0 0.00 0.00 0.00 61 1018.6
20201130223127 27 338 0.0 0.0 0.00 0.00 0.00 61 1018.6
20201130221126 27 338 0.0 0.0 0.00 0.00 0.00 60 1019.0
20201130215622 28 338 0.0 0.0 0.00 0.00 0.00 59 1019.0
20201130215121 28 338 0.0 0.0 0.00 0.00 0.00 59 1019.3
20201130213621 29 338 0.0 0.0 0.00 0.00 0.00 59 1019.3
20201130213119 29 338 0.0 0.0 0.00 0.00 0.00 59 1019.3
20201130212618 29 338 0.0 0.0 0.00 0.00 0.00 59 1019.3
20201130212119 29 23 0.0 0.0 0.00 0.00 0.00 59 1019.3
20201130211121 29 0 0.0 0.0 0.00 0.00 0.00 59 1019.0
20201130205614 29 23 0.0 0.0 0.00 0.00 0.00 59 1019.0
20201130205115 29 23 0.0 0.0 0.00 0.00 0.00 59 1019.0
20201130204614 29 0 0.0 0.0 0.00 0.00 0.00 59 1019.3
20201130203611 29 0 0.0 0.0 0.00 0.00 0.00 59 1019.0
20201130202109 31 0 0.0 0.0 0.00 0.00 0.00 57 1019.3
20201130201608 31 45 0.0 0.0 0.00 0.00 0.00 58 1019.3
20201130200109 30 0 0.0 0.0 0.00 0.00 0.00 59 1019.3
20201130195606 30 0 0.0 0.0 0.00 0.00 0.00 60 1019.6
20201130194605 29 0 0.0 0.0 0.00 0.00 0.00 61 1019.6
20201130194103 29 23 0.0 2.0 0.00 0.00 0.00 61 1019.6
20201130192104 29 0 0.0 0.0 0.00 0.00 0.00 62 1020.0
20201130191059 28 338 0.0 0.0 0.00 0.00 0.00 63 1020.0
20201130190558 28 338 0.0 0.0 0.00 0.00 0.00 63 1020.0
20201130184556 27 225 0.0 0.0 0.00 0.00 0.00 64 1020.3
20201130184055 27 338 0.0 0.0 0.00 0.00 0.00 63 1020.7
20201130183558 27 315 0.0 0.0 0.00 0.00 0.00 64 1020.7
20201130183056 27 0 0.0 0.0 0.00 0.00 0.00 64 1020.7
20201130182053 27 338 0.0 0.0 0.00 0.00 0.00 65 1021.0
20201130181051 26 68 0.0 0.0 0.00 0.00 0.00 66 1021.0
20201130180551 26 113 0.0 0.0 0.00 0.00 0.00 66 1021.0
20201130180100 26 293 0.0 0.0 0.00 0.00 0.00 66 1021.3
20201130175550 25 0 0.0 0.0 0.00 0.00 0.00 66 1021.7
20201130174548 26 338 0.0 0.0 0.00 0.00 0.00 66 1021.7